Torna al catalogo

FREGAT DEB

AttivoUNKNOWN
NORAD 45994·DEBRIS·🇷🇺 Russia

Lanciato Jul 18, 2011 da Baikonur Cosmodrome

Loading…

Prossimi Passaggi (prossime 24 ore)

TLE

AggiornatoSource: Space-Track

Epoca: Sep 14, 2026, 11:16 UTC

1 45994U 11037GV  26257.46992356  .00000123  00000-0  39285-3 0  9995
2 45994  51.5101  65.1418 1698519  97.5677 282.0436 10.95462127244979

Traccia FREGAT DEB in tempo reale con AllMySat

Download on the App Store